Flag for Brazil Weather past 2 weeks in Rio de Janeiro, Rio de Janeiro, Brazil

Now
79 °F

Broken clouds.


Feels Like: 81 °F
Forecast: 72 / 83 °F
Wind: 16 mph from South

Location: Rio De Janeiro Airport

Current Time: Oct 20, 2014 at 4:16:09 PM

Latest Report: Oct 20, 2014 at 3:00 PM


Visibility: 5 mi

Pressure: 29.95 "Hg

Humidity: 74%

Dew point: 70 °F

Location of Rio de JaneiroLocation

Historic Weather in Rio de Janeiro — Graph

°F

Rio de Janeiro temperature yesterday

Maximum temperature yesterday: 91 °F (at 4:00 PM)
Minimum temperature yesterday: 72 °F (at 6:00 AM)
Average temperature yesterday: 82 °F

Past Weeks' High & Low Weather Summary

 TemperatureHumidityPressure
High91 °F (Oct 13, 12:00 PM)100% (Oct 12, 6:00 AM)30.30 "Hg (Oct 12, 6:00 AM)
Low64 °F (Oct 6, 6:00 AM)37% (Oct 8, 11:00 AM)29.68 "Hg (Oct 19, 4:00 PM)
Average76 °F73%29.99 "Hg
* Reported Oct 5 2:00 PM — Oct 20 3:00 PM, Rio de Janeiro, Weather by CustomWeather, © 2014

Note: Actual official high and low records may vary slightly from our data, if they occured in-between our weather recording intervals... More about our weather records

Advertising

Rio de Janeiro weather history for previous 24 hours

 ConditionsComfort  
Time TempWeatherWind HumidityBarometerVisibility
3:00 PM
Oct 20
79 °FBroken clouds.16 mph74%29.95 "Hg5 mi
2:00 PM81 °FScattered clouds.13 mph70%29.95 "Hg6 mi
1:00 PM82 °FScattered clouds.14 mph66%29.95 "Hg6 mi
12:00 PM81 °FScattered clouds.18 mph70%29.92 "Hg6 mi
11:00 AM88 °FClear.23 mph55%29.89 "Hg6 mi
10:00 AM81 °FPartly sunny.7 mph74%29.83 "Hg5 mi
9:00 AM77 °FPartly sunny.13 mph79%29.83 "Hg4 mi
8:00 AM75 °FPartly sunny.9 mph89%29.86 "Hg4 mi
7:00 AM77 °FPartly sunny.9 mph79%29.86 "Hg4 mi
6:00 AM75 °FPartly cloudy.7 mph83%29.86 "Hg4 mi
11:00 PM
Oct 19
81 °FThunderstorms. Passing clouds.12 mph70%N/AN/A
10:00 PM82 °FLight rain. Passing clouds.18 mph66%29.89 "HgN/A
9:00 PM82 °FPassing clouds.12 mph70%29.77 "HgN/A
8:00 PM81 °FClear.10 mph74%29.74 "Hg10 mi
7:00 PM81 °FClear.7 mph74%29.71 "Hg10 mi
6:00 PM84 °FSunny.12 mph66%29.68 "Hg10 mi
5:00 PM90 °FClear.17 mph55%29.68 "Hg6 mi
4:00 PM91 °FClear.15 mph52%29.68 "Hg6 mi
Weather by CustomWeather, © 2014

See weather overviewHow to use our weather pages